Time,TemperatureF,DewpointF,PressureIn,WindDirection,WindDirectionDegrees,WindSpeedMPH,WindSpeedGustMPH,Humidity,HourlyPrecipIn,Conditions,Clouds,dailyrainin,SoftwareType,DateUTC
2013-02-13 00:02:00,28.0,-99.9,-100.00,SSW,203,5.0,-999.0,-999,-99.99,,,-99.99,,2013-02-13 07:02:00,
2013-02-13 00:11:00,28.0,-99.9,-100.00,SSW,203,5.0,-999.0,-999,-99.99,,,-99.99,,2013-02-13 07:11:00,
2013-02-13 00:22:00,28.0,-99.9,-100.00,SSW,203,5.0,-999.0,-999,-99.99,,,-99.99,,2013-02-13 07:22:00,
2013-02-13 00:32:00,28.0,-99.9,-100.00,SSW,201,4.0,-999.0,-999,-99.99,,,-99.99,,2013-02-13 07:32:00,
2013-02-13 00:42:00,28.0,-99.9,-100.00,SSW,201,4.0,-999.0,-999,-99.99,,,-99.99,,2013-02-13 07:42:00,
2013-02-13 00:52:00,27.0,-99.9,-100.00,SSW,206,3.0,-999.0,-999,-99.99,,,-99.99,,2013-02-13 07:52:00,
2013-02-13 01:01:00,27.0,-99.9,-100.00,SSW,209,3.0,-999.0,-999,-99.99,,,-99.99,,2013-02-13 08:01:00,
2013-02-13 01:12:00,27.0,-99.9,-100.00,SSW,209,3.0,-999.0,-999,-99.99,,,-99.99,,2013-02-13 08:12:00,
2013-02-13 01:22:00,27.0,-99.9,-100.00,SW,216,4.0,-999.0,-999,-99.99,,,-99.99,,2013-02-13 08:22:00,
2013-02-13 01:32:00,27.0,-99.9,-100.00,SSW,199,6.0,-999.0,-999,-99.99,,,-99.99,,2013-02-13 08:32:00,
2013-02-13 01:43:00,27.0,-99.9,-100.00,SSW,199,6.0,-999.0,-999,-99.99,,,-99.99,,2013-02-13 08:43:00,
2013-02-13 01:52:00,27.0,-99.9,-100.00,South,190,6.0,-999.0,-999,-99.99,,,-99.99,,2013-02-13 08:52:00,
2013-02-13 02:02:00,28.0,-99.9,-100.00,South,190,7.0,-999.0,-999,-99.99,,,-99.99,,2013-02-13 09:02:00,
2013-02-13 02:11:00,28.0,-99.9,-100.00,South,190,7.0,-999.0,-999,-99.99,,,-99.99,,2013-02-13 09:11:00,
2013-02-13 02:22:00,28.0,-99.9,-100.00,South,189,8.0,-999.0,-999,-99.99,,,-99.99,,2013-02-13 09:22:00,
2013-02-13 02:32:00,27.0,-99.9,-100.00,SSW,198,8.0,-999.0,-999,-99.99,,,-99.99,,2013-02-13 09:32:00,
2013-02-13 02:42:00,27.0,-99.9,-100.00,SSW,198,8.0,-999.0,-999,-99.99,,,-99.99,,2013-02-13 09:42:00,
2013-02-13 02:52:00,27.0,-99.9,-100.00,SSW,200,7.0,-999.0,-999,-99.99,,,-99.99,,2013-02-13 09:52:00,
2013-02-13 03:01:00,27.0,-99.9,-100.00,SSW,200,9.0,-999.0,-999,-99.99,,,-99.99,,2013-02-13 10:01:00,
2013-02-13 03:11:00,27.0,-99.9,-100.00,SSW,200,9.0,-999.0,-999,-99.99,,,-99.99,,2013-02-13 10:11:00,
2013-02-13 03:22:00,27.0,-99.9,-100.00,South,188,7.0,-999.0,-999,-99.99,,,-99.99,,2013-02-13 10:22:00,
2013-02-13 03:32:00,27.0,-99.9,-100.00,South,189,8.0,-999.0,-999,-99.99,,,-99.99,,2013-02-13 10:32:00,
2013-02-13 03:42:00,27.0,-99.9,-100.00,South,189,8.0,-999.0,-999,-99.99,,,-99.99,,2013-02-13 10:42:00,
2013-02-13 03:52:00,27.0,-99.9,-100.00,SSW,199,7.0,-999.0,-999,-99.99,,,-99.99,,2013-02-13 10:52:00,
2013-02-13 04:01:00,27.0,-99.9,-100.00,SSW,206,7.0,-999.0,-999,-99.99,,,-99.99,,2013-02-13 11:01:00,
2013-02-13 04:11:00,27.0,-99.9,-100.00,SSW,206,7.0,-999.0,-999,-99.99,,,-99.99,,2013-02-13 11:11:00,
2013-02-13 04:22:00,27.0,-99.9,-100.00,SSW,206,7.0,-999.0,-999,-99.99,,,-99.99,,2013-02-13 11:22:00,
2013-02-13 04:32:00,27.0,-99.9,-100.00,SSW,193,8.0,-999.0,-999,-99.99,,,-99.99,,2013-02-13 11:32:00,
2013-02-13 04:42:00,27.0,-99.9,-100.00,SSW,193,8.0,-999.0,-999,-99.99,,,-99.99,,2013-02-13 11:42:00,
2013-02-13 04:52:00,27.0,-99.9,-100.00,South,185,7.0,-999.0,-999,-99.99,,,-99.99,,2013-02-13 11:52:00,
2013-02-13 05:02:00,27.0,-99.9,-100.00,SSW,193,8.0,-999.0,-999,-99.99,,,-99.99,,2013-02-13 12:02:00,
2013-02-13 05:11:00,27.0,-99.9,-100.00,SSW,193,8.0,-999.0,-999,-99.99,,,-99.99,,2013-02-13 12:11:00,
2013-02-13 05:22:00,26.0,-99.9,-100.00,SSW,196,7.0,-999.0,-999,-99.99,,,-99.99,,2013-02-13 12:22:00,
2013-02-13 05:32:00,26.0,-99.9,-100.00,SSW,196,8.0,-999.0,-999,-99.99,,,-99.99,,2013-02-13 12:32:00,
2013-02-13 05:42:00,26.0,-99.9,-100.00,SSW,196,8.0,-999.0,-999,-99.99,,,-99.99,,2013-02-13 12:42:00,
2013-02-13 05:52:00,26.0,-99.9,-100.00,SSW,195,6.0,-999.0,-999,-99.99,,,-99.99,,2013-02-13 12:52:00,
2013-02-13 06:02:00,26.0,-99.9,-100.00,SSW,204,7.0,-999.0,-999,-99.99,,,-99.99,,2013-02-13 13:02:00,
2013-02-13 06:12:00,26.0,-99.9,-100.00,SSW,204,7.0,-999.0,-999,-99.99,,,-99.99,,2013-02-13 13:12:00,
2013-02-13 06:22:00,27.0,-99.9,-100.00,SSW,201,7.0,-999.0,-999,-99.99,,,-99.99,,2013-02-13 13:22:00,
2013-02-13 06:32:00,27.0,-99.9,-100.00,SSW,200,8.0,-999.0,-999,-99.99,,,-99.99,,2013-02-13 13:32:00,
2013-02-13 06:42:00,27.0,-99.9,-100.00,SSW,200,8.0,-999.0,-999,-99.99,,,-99.99,,2013-02-13 13:42:00,
2013-02-13 06:52:00,27.0,-99.9,-100.00,SSW,201,8.0,-999.0,-999,-99.99,,,-99.99,,2013-02-13 13:52:00,
2013-02-13 07:01:00,27.0,-99.9,-100.00,South,187,9.0,-999.0,-999,-99.99,,,-99.99,,2013-02-13 14:01:00,
2013-02-13 07:11:00,27.0,-99.9,-100.00,South,187,9.0,-999.0,-999,-99.99,,,-99.99,,2013-02-13 14:11:00,
2013-02-13 07:22:00,28.0,-99.9,-100.00,SSW,192,7.0,-999.0,-999,-99.99,,,-99.99,,2013-02-13 14:22:00,
2013-02-13 07:32:00,28.0,-99.9,-100.00,SSW,192,7.0,-999.0,-999,-99.99,,,-99.99,,2013-02-13 14:32:00,
2013-02-13 07:42:00,28.0,-99.9,-100.00,SSW,192,7.0,-999.0,-999,-99.99,,,-99.99,,2013-02-13 14:42:00,
2013-02-13 07:52:00,28.0,-99.9,-100.00,South,184,10.0,-999.0,-999,-99.99,,,-99.99,,2013-02-13 14:52:00,
2013-02-13 08:02:00,29.0,-99.9,-100.00,South,184,9.0,-999.0,-999,-99.99,,,-99.99,,2013-02-13 15:02:00,
2013-02-13 08:11:00,29.0,-99.9,-100.00,South,184,9.0,-999.0,-999,-99.99,,,-99.99,,2013-02-13 15:11:00,
2013-02-13 08:22:00,30.0,-99.9,-100.00,South,188,11.0,-999.0,-999,-99.99,,,-99.99,,2013-02-13 15:22:00,
2013-02-13 08:32:00,31.0,-99.9,-100.00,South,189,10.0,-999.0,-999,-99.99,,,-99.99,,2013-02-13 15:32:00,
2013-02-13 08:42:00,31.0,-99.9,-100.00,South,189,10.0,-999.0,-999,-99.99,,,-99.99,,2013-02-13 15:42:00,
2013-02-13 08:52:00,32.0,-99.9,-100.00,SSW,196,8.0,-999.0,-999,-99.99,,,-99.99,,2013-02-13 15:52:00,
2013-02-13 09:02:00,33.0,-99.9,-100.00,SSW,205,8.0,-999.0,-999,-99.99,,,-99.99,,2013-02-13 16:02:00,
2013-02-13 09:12:00,33.0,-99.9,-100.00,SSW,205,8.0,-999.0,-999,-99.99,,,-99.99,,2013-02-13 16:12:00,
2013-02-13 09:22:00,33.0,-99.9,-100.00,SSW,195,8.0,-999.0,-999,-99.99,,,-99.99,,2013-02-13 16:22:00,
2013-02-13 09:32:00,34.0,-99.9,-100.00,SSW,196,7.0,-999.0,-999,-99.99,,,-99.99,,2013-02-13 16:32:00,
2013-02-13 09:42:00,34.0,-99.9,-100.00,SSW,196,7.0,-999.0,-999,-99.99,,,-99.99,,2013-02-13 16:42:00,
2013-02-13 09:52:00,36.0,-99.9,-100.00,South,186,6.0,-999.0,-999,-99.99,,,-99.99,,2013-02-13 16:52:00,
2013-02-13 10:02:00,38.0,-99.9,-100.00,SSW,196,7.0,-999.0,-999,-99.99,,,-99.99,,2013-02-13 17:02:00,
2013-02-13 10:11:00,38.0,-99.9,-100.00,SSW,196,7.0,-999.0,-999,-99.99,,,-99.99,,2013-02-13 17:11:00,
2013-02-13 10:22:00,40.0,-99.9,-100.00,SSW,210,7.0,-999.0,-999,-99.99,,,-99.99,,2013-02-13 17:22:00,
2013-02-13 10:32:00,41.0,-99.9,-100.00,SW,233,5.0,-999.0,-999,-99.99,,,-99.99,,2013-02-13 17:32:00,
2013-02-13 10:42:00,41.0,-99.9,-100.00,SW,233,5.0,-999.0,-999,-99.99,,,-99.99,,2013-02-13 17:42:00,
2013-02-13 10:52:00,43.0,-99.9,-100.00,WNW,302,5.0,-999.0,-999,-99.99,,,-99.99,,2013-02-13 17:52:00,
2013-02-13 11:02:00,44.0,-99.9,-100.00,NNW,338,9.0,-999.0,-999,-99.99,,,-99.99,,2013-02-13 18:02:00,
2013-02-13 11:12:00,44.0,-99.9,-100.00,NNW,338,9.0,-999.0,-999,-99.99,,,-99.99,,2013-02-13 18:12:00,
2013-02-13 11:23:00,45.0,-99.9,-100.00,NW,310,14.0,-999.0,-999,-99.99,,,-99.99,,2013-02-13 18:23:00,
2013-02-13 11:32:00,44.0,-99.9,-100.00,WNW,302,18.0,-999.0,-999,-99.99,,,-99.99,,2013-02-13 18:32:00,
2013-02-13 11:42:00,44.0,-99.9,-100.00,WNW,302,18.0,-999.0,-999,-99.99,,,-99.99,,2013-02-13 18:42:00,
2013-02-13 11:52:00,43.0,-99.9,-100.00,West,280,22.0,-999.0,-999,-99.99,,,-99.99,,2013-02-13 18:52:00,
2013-02-13 12:02:00,42.0,-99.9,-100.00,WNW,287,20.0,-999.0,-999,-99.99,,,-99.99,,2013-02-13 19:02:00,
2013-02-13 12:11:00,42.0,-99.9,-100.00,WNW,287,20.0,-999.0,-999,-99.99,,,-99.99,,2013-02-13 19:11:00,
2013-02-13 12:21:00,42.0,-99.9,-100.00,WNW,301,21.0,-999.0,-999,-99.99,,,-99.99,,2013-02-13 19:21:00,
2013-02-13 12:32:00,42.0,-99.9,-100.00,WNW,296,21.0,-999.0,-999,-99.99,,,-99.99,,2013-02-13 19:32:00,
2013-02-13 12:42:00,42.0,-99.9,-100.00,WNW,296,21.0,-999.0,-999,-99.99,,,-99.99,,2013-02-13 19:42:00,
2013-02-13 12:52:00,42.0,-99.9,-100.00,NW,304,17.0,-999.0,-999,-99.99,,,-99.99,,2013-02-13 19:52:00,
2013-02-13 13:02:00,43.0,-99.9,-100.00,WNW,292,16.0,-999.0,-999,-99.99,,,-99.99,,2013-02-13 20:02:00,
2013-02-13 13:11:00,43.0,-99.9,-100.00,WNW,292,16.0,-999.0,-999,-99.99,,,-99.99,,2013-02-13 20:11:00,
2013-02-13 13:22:00,43.0,-99.9,-100.00,North,4,11.0,-999.0,-999,-99.99,,,-99.99,,2013-02-13 20:22:00,
2013-02-13 13:32:00,42.0,-99.9,-100.00,NNE,21,8.0,-999.0,-999,-99.99,,,-99.99,,2013-02-13 20:32:00,
2013-02-13 13:42:00,42.0,-99.9,-100.00,NNE,21,8.0,-999.0,-999,-99.99,,,-99.99,,2013-02-13 20:42:00,
2013-02-13 13:52:00,44.0,-99.9,-100.00,North,5,8.0,-999.0,-999,-99.99,,,-99.99,,2013-02-13 20:52:00,
2013-02-13 14:02:00,45.0,-99.9,-100.00,WNW,297,10.0,-999.0,-999,-99.99,,,-99.99,,2013-02-13 21:02:00,
2013-02-13 14:11:00,45.0,-99.9,-100.00,WNW,297,10.0,-999.0,-999,-99.99,,,-99.99,,2013-02-13 21:11:00,
2013-02-13 14:22:00,45.0,-99.9,-100.00,WNW,297,10.0,-999.0,-999,-99.99,,,-99.99,,2013-02-13 21:22:00,
2013-02-13 14:32:00,46.0,-99.9,-100.00,West,270,14.0,-999.0,-999,-99.99,,,-99.99,,2013-02-13 21:32:00,
2013-02-13 14:43:00,46.0,-99.9,-100.00,West,270,14.0,-999.0,-999,-99.99,,,-99.99,,2013-02-13 21:43:00,
2013-02-13 14:52:00,46.0,-99.9,-100.00,West,266,21.0,-999.0,-999,-99.99,,,-99.99,,2013-02-13 21:52:00,
2013-02-13 15:02:00,45.0,-99.9,-100.00,West,274,20.0,-999.0,-999,-99.99,,,-99.99,,2013-02-13 22:02:00,
2013-02-13 15:11:00,45.0,-99.9,-100.00,West,274,20.0,-999.0,-999,-99.99,,,-99.99,,2013-02-13 22:11:00,
2013-02-13 15:21:00,45.0,-99.9,-100.00,West,279,20.0,-999.0,-999,-99.99,,,-99.99,,2013-02-13 22:21:00,
2013-02-13 15:32:00,45.0,-99.9,-100.00,West,279,20.0,-999.0,-999,-99.99,,,-99.99,,2013-02-13 22:32:00,
2013-02-13 15:42:00,45.0,-99.9,-100.00,West,279,20.0,-999.0,-999,-99.99,,,-99.99,,2013-02-13 22:42:00,
2013-02-13 15:52:00,45.0,-99.9,-100.00,West,275,20.0,-999.0,-999,-99.99,,,-99.99,,2013-02-13 22:52:00,
2013-02-13 16:02:00,44.0,-99.9,-100.00,West,275,21.0,-999.0,-999,-99.99,,,-99.99,,2013-02-13 23:02:00,
2013-02-13 16:12:00,44.0,-99.9,-100.00,West,275,21.0,-999.0,-999,-99.99,,,-99.99,,2013-02-13 23:12:00,
2013-02-13 16:22:00,44.0,-99.9,-100.00,West,276,23.0,-999.0,-999,-99.99,,,-99.99,,2013-02-13 23:22:00,
2013-02-13 16:32:00,45.0,-99.9,-100.00,West,271,19.0,-999.0,-999,-99.99,,,-99.99,,2013-02-13 23:32:00,
2013-02-13 16:42:00,45.0,-99.9,-100.00,West,271,19.0,-999.0,-999,-99.99,,,-99.99,,2013-02-13 23:42:00,
2013-02-13 16:53:00,45.0,-99.9,-100.00,West,270,16.0,-999.0,-999,-99.99,,,-99.99,,2013-02-13 23:53:00,
2013-02-13 17:02:00,45.0,-99.9,-100.00,West,280,17.0,-999.0,-999,-99.99,,,-99.99,,2013-02-14 00:02:00,
2013-02-13 17:12:00,45.0,-99.9,-100.00,West,280,17.0,-999.0,-999,-99.99,,,-99.99,,2013-02-14 00:12:00,
2013-02-13 17:22:00,45.0,-99.9,-100.00,WNW,298,16.0,-999.0,-999,-99.99,,,-99.99,,2013-02-14 00:22:00,
2013-02-13 17:32:00,45.0,-99.9,-100.00,WNW,303,16.0,-999.0,-999,-99.99,,,-99.99,,2013-02-14 00:32:00,
2013-02-13 17:43:00,45.0,-99.9,-100.00,WNW,303,16.0,-999.0,-999,-99.99,,,-99.99,,2013-02-14 00:43:00,
2013-02-13 17:52:00,45.0,-99.9,-100.00,WNW,303,16.0,-999.0,-999,-99.99,,,-99.99,,2013-02-14 00:52:00,
2013-02-13 18:01:00,45.0,-99.9,-100.00,NW,306,15.0,-999.0,-999,-99.99,,,-99.99,,2013-02-14 01:01:00,
2013-02-13 18:11:00,45.0,-99.9,-100.00,NW,306,15.0,-999.0,-999,-99.99,,,-99.99,,2013-02-14 01:11:00,
2013-02-13 18:22:00,44.0,-99.9,-100.00,NW,308,13.0,-999.0,-999,-99.99,,,-99.99,,2013-02-14 01:22:00,
2013-02-13 18:32:00,44.0,-99.9,-100.00,NW,308,13.0,-999.0,-999,-99.99,,,-99.99,,2013-02-14 01:32:00,
2013-02-13 18:42:00,44.0,-99.9,-100.00,NW,308,13.0,-999.0,-999,-99.99,,,-99.99,,2013-02-14 01:42:00,
2013-02-13 18:52:00,43.0,-99.9,-100.00,NW,305,10.0,-999.0,-999,-99.99,,,-99.99,,2013-02-14 01:52:00,
2013-02-13 19:02:00,43.0,-99.9,-100.00,NW,310,8.0,-999.0,-999,-99.99,,,-99.99,,2013-02-14 02:02:00,
2013-02-13 19:11:00,43.0,-99.9,-100.00,NW,310,8.0,-999.0,-999,-99.99,,,-99.99,,2013-02-14 02:11:00,
2013-02-13 19:22:00,42.0,-99.9,-100.00,WNW,303,8.0,-999.0,-999,-99.99,,,-99.99,,2013-02-14 02:22:00,
2013-02-13 19:32:00,42.0,-99.9,-100.00,West,279,7.0,-999.0,-999,-99.99,,,-99.99,,2013-02-14 02:32:00,
2013-02-13 19:42:00,42.0,-99.9,-100.00,West,279,7.0,-999.0,-999,-99.99,,,-99.99,,2013-02-14 02:42:00,
2013-02-13 19:52:00,42.0,-99.9,-100.00,West,279,7.0,-999.0,-999,-99.99,,,-99.99,,2013-02-14 02:52:00,
2013-02-13 20:02:00,41.0,-99.9,-100.00,WNW,296,8.0,-999.0,-999,-99.99,,,-99.99,,2013-02-14 03:02:00,
2013-02-13 20:12:00,41.0,-99.9,-100.00,WNW,296,8.0,-999.0,-999,-99.99,,,-99.99,,2013-02-14 03:12:00,
2013-02-13 20:22:00,41.0,-99.9,-100.00,West,279,8.0,-999.0,-999,-99.99,,,-99.99,,2013-02-14 03:22:00,
2013-02-13 20:32:00,41.0,-99.9,-100.00,West,272,10.0,-999.0,-999,-99.99,,,-99.99,,2013-02-14 03:32:00,
2013-02-13 20:42:00,41.0,-99.9,-100.00,West,272,10.0,-999.0,-999,-99.99,,,-99.99,,2013-02-14 03:42:00,
2013-02-13 20:52:00,41.0,-99.9,-100.00,West,272,10.0,-999.0,-999,-99.99,,,-99.99,,2013-02-14 03:52:00,
2013-02-13 21:01:00,41.0,-99.9,-100.00,West,279,13.0,-999.0,-999,-99.99,,,-99.99,,2013-02-14 04:01:00,
2013-02-13 21:12:00,41.0,-99.9,-100.00,West,279,13.0,-999.0,-999,-99.99,,,-99.99,,2013-02-14 04:12:00,
2013-02-13 21:22:00,41.0,-99.9,-100.00,WNW,291,12.0,-999.0,-999,-99.99,,,-99.99,,2013-02-14 04:22:00,
2013-02-13 21:32:00,41.0,-99.9,-100.00,NW,306,11.0,-999.0,-999,-99.99,,,-99.99,,2013-02-14 04:32:00,
2013-02-13 21:42:00,41.0,-99.9,-100.00,NW,306,11.0,-999.0,-999,-99.99,,,-99.99,,2013-02-14 04:42:00,
2013-02-13 21:52:00,41.0,-99.9,-100.00,NW,321,10.0,-999.0,-999,-99.99,,,-99.99,,2013-02-14 04:52:00,
2013-02-13 22:02:00,41.0,-99.9,-100.00,NW,307,11.0,-999.0,-999,-99.99,,,-99.99,,2013-02-14 05:02:00,
2013-02-13 22:11:00,41.0,-99.9,-100.00,NW,307,11.0,-999.0,-999,-99.99,,,-99.99,,2013-02-14 05:11:00,
2013-02-13 22:22:00,40.0,-99.9,-100.00,WNW,298,10.0,-999.0,-999,-99.99,,,-99.99,,2013-02-14 05:22:00,
2013-02-13 22:32:00,41.0,-99.9,-100.00,WNW,296,13.0,-999.0,-999,-99.99,,,-99.99,,2013-02-14 05:32:00,
2013-02-13 22:42:00,41.0,-99.9,-100.00,WNW,296,13.0,-999.0,-999,-99.99,,,-99.99,,2013-02-14 05:42:00,
2013-02-13 22:52:00,41.0,-99.9,-100.00,WNW,292,12.0,-999.0,-999,-99.99,,,-99.99,,2013-02-14 05:52:00,
2013-02-13 23:02:00,41.0,-99.9,-100.00,West,268,11.0,-999.0,-999,-99.99,,,-99.99,,2013-02-14 06:02:00,
2013-02-13 23:11:00,41.0,-99.9,-100.00,West,268,11.0,-999.0,-999,-99.99,,,-99.99,,2013-02-14 06:11:00,
2013-02-13 23:22:00,41.0,-99.9,-100.00,SW,234,8.0,-999.0,-999,-99.99,,,-99.99,,2013-02-14 06:22:00,
2013-02-13 23:32:00,39.0,-99.9,-100.00,South,188,5.0,-999.0,-999,-99.99,,,-99.99,,2013-02-14 06:32:00,
2013-02-13 23:42:00,39.0,-99.9,-100.00,South,188,5.0,-999.0,-999,-99.99,,,-99.99,,2013-02-14 06:42:00,
2013-02-13 23:52:00,37.0,-99.9,-100.00,SSE,155,4.0,-999.0,-999,-99.99,,,-99.99,,2013-02-14 06:52:00,